N723KB CYYJ-CYYJ

Flight info

Callsign N723KB
Flight time 0h 3m
Altitude 1000
Route
Aircraft C172

Departure

Time 2026-05-08 04:00
Airport Victoria International Airport (CYYJ)

Arrival

Time 2026-05-08 04:03
Airport Victoria International Airport (CYYJ)
Time Latitude Longitude Altitude Speed Heading
2026-05-08 03:48 48.64605 -123.42189 51 ft 0 kts 103°
2026-05-08 03:54 48.64598 -123.42173 51 ft 5 kts 154°
2026-05-08 03:54 48.64593 -123.42209 51 ft 5 kts 319°
2026-05-08 03:54 48.64644 -123.42222 51 ft 12 kts 15°
2026-05-08 03:54 48.64696 -123.42174 51 ft 5 kts 45°
2026-05-08 03:55 48.64705 -123.42162 51 ft 5 kts 40°
2026-05-08 03:55 48.64723 -123.42162 51 ft 6 kts 275°
2026-05-08 03:55 48.64744 -123.42266 51 ft 15 kts 287°
2026-05-08 03:55 48.64779 -123.42441 51 ft 18 kts 285°
2026-05-08 03:56 48.64807 -123.42590 51 ft 15 kts 286°
2026-05-08 03:56 48.64840 -123.42760 50 ft 18 kts 286°
2026-05-08 03:56 48.64876 -123.42956 52 ft 22 kts 287°
2026-05-08 03:56 48.64917 -123.43168 51 ft 25 kts 285°
2026-05-08 03:57 48.64966 -123.43423 50 ft 26 kts 285°
2026-05-08 03:57 48.65016 -123.43685 49 ft 25 kts 285°
2026-05-08 03:57 48.65058 -123.43860 49 ft 10 kts 322°
2026-05-08 03:57 48.65080 -123.43877 48 ft 0 kts 338°
2026-05-08 03:58 48.65081 -123.43878 48 ft 0 kts 327°
2026-05-08 03:58 48.65090 -123.43887 48 ft 5 kts 328°
2026-05-08 03:58 48.65148 -123.43926 47 ft 11 kts 10°
2026-05-08 03:59 48.65164 -123.43826 47 ft 14 kts 107°
2026-05-08 03:59 48.65106 -123.43521 53 ft 52 kts 110°
2026-05-08 03:59 48.65011 -123.42952 237 ft 55 kts 109°
2026-05-08 03:59 48.64914 -123.42374 413 ft 59 kts 109°
2026-05-08 04:00 48.64782 -123.41772 609 ft 62 kts 112°
2026-05-08 04:00 48.64648 -123.41139 806 ft 64 kts 107°
2026-05-08 04:00 48.64787 -123.40487 989 ft 75 kts 44°
2026-05-08 04:00 48.65310 -123.40255 1064 ft 88 kts 340°
2026-05-08 04:01 48.65766 -123.40826 1165 ft 87 kts 292°
2026-05-08 04:01 48.65962 -123.41692 1254 ft 90 kts 283°
2026-05-08 04:01 48.66133 -123.42611 1310 ft 89 kts 281°
2026-05-08 04:01 48.66291 -123.43471 1343 ft 84 kts 280°
2026-05-08 04:02 48.66453 -123.44305 1363 ft 81 kts 281°
2026-05-08 04:02 48.66600 -123.45085 1433 ft 72 kts 275°
2026-05-08 04:02 48.66422 -123.45753 1379 ft 79 kts 219°
2026-05-08 04:02 48.65912 -123.45990 1179 ft 77 kts 171°
2026-05-08 04:03 48.65519 -123.45486 1032 ft 77 kts 119°
2026-05-08 04:03 48.65226 -123.44072 342 ft 45 kts 110°
2026-05-08 04:03 48.65169 -123.43689 365 ft 42 kts 109°
2026-05-08 04:04 48.65072 -123.43195 504 ft 52 kts 113°
2026-05-08 04:04 48.64947 -123.42638 650 ft 63 kts 111°
2026-05-08 04:04 48.64826 -123.41979 838 ft 68 kts 107°
2026-05-08 04:04 48.64637 -123.41301 939 ft 79 kts 144°
2026-05-08 04:05 48.64122 -123.41152 1053 ft 82 kts 191°
2026-05-08 04:05 48.63719 -123.41713 1151 ft 86 kts 250°
2026-05-08 04:05 48.63824 -123.42662 1156 ft 94 kts 285°
2026-05-08 04:05 48.64073 -123.43573 1201 ft 94 kts 289°
2026-05-08 04:06 48.64344 -123.44476 1194 ft 95 kts 289°
2026-05-08 04:06 48.64599 -123.45403 1189 ft 91 kts 287°
2026-05-08 04:06 48.64832 -123.46266 1245 ft 88 kts 285°
2026-05-08 04:06 48.65066 -123.47107 1308 ft 86 kts 302°
2026-05-08 04:07 48.65609 -123.47520 1201 ft 90 kts 358°
2026-05-08 04:07 48.66062 -123.47051 1072 ft 79 kts 76°
2026-05-08 04:07 48.65929 -123.46337 934 ft 69 kts 129°
2026-05-08 04:07 48.65639 -123.45730 774 ft 76 kts 129°
2026-05-08 04:08 48.65404 -123.44978 460 ft 80 kts 113°
2026-05-08 04:08 48.65234 -123.44179 188 ft 76 kts 112°
2026-05-08 04:08 48.65097 -123.43474 60 ft 61 kts 111°
2026-05-08 04:08 48.64996 -123.42953 52 ft 45 kts 107°
2026-05-08 04:09 48.64914 -123.42528 51 ft 42 kts 106°
2026-05-08 04:09 48.64838 -123.42127 50 ft 30 kts 108°
2026-05-08 04:09 48.64779 -123.42026 51 ft 8 kts 236°
2026-05-08 04:09 48.64723 -123.42136 51 ft 14 kts 229°
2026-05-08 04:10 48.64641 -123.42243 51 ft 18 kts 206°
2026-05-08 04:10 48.64581 -123.42242 51 ft 6 kts 93°
2026-05-08 04:10 48.64575 -123.42178 51 ft 3 kts 107°